Location: Marcé
(47.5801°N, 0.3280°W)
Time: 20:10:32
(UTC+02:00)

ISS - Visible Passes

Search period start: 23 July 2024 00:00
Search period end: 02 August 2024 00:00
Orbit: 409 x 423 km, 51.6° (Epoch: 23 July)

Date Brightness Start Highest point End Pass type
(mag) Time Alt. Az. Time Alt. Az. Time Alt. Az.
23 Jul -1.7 00:38:22 10° W 00:39:58 18° WSW 00:39:58 18° WSW visible
23 Jul -2.8 23:49:33 10° W 23:52:32 32° SW 23:53:03 30° SSW visible
24 Jul -3.4 23:00:49 10° WNW 23:04:02 49° SSW 23:06:08 19° SE visible
25 Jul -1.6 23:49:52 10° W 23:51:43 14° SW 23:52:07 14° SW visible
26 Jul -2.0 23:00:37 10° W 23:03:16 22° SW 23:05:14 14° S visible
